Regional Weather Roundup
Issued by NWS San Diego, CA

Home | Current Version | Previous Version | Text Only | Print | Product List | Glossary On
Versions: 1 2 3 4 5 6 7 8 9 10 11 12 13 14 15 16 17 18 19 20 21 22 23 24 25 26 27
000
ASUS46 KSGX 201711
RWRSGX

SAN DIEGO HOURLY WEATHER ROUNDUP
NATIONAL WEATHER SERVICE SAN DIEGO CA
900 AM PST TUE FEB 20 2018

NOTE: "FAIR" INDICATES FEW OR NO CLOUDS BELOW 12,000 FEET WITH NO
SIGNIFICANT WEATHER AND/OR OBSTRUCTIONS TO VISIBILITY.

CAZ042-043-060-061-PZZ750-775-201800-

GREATER SAN DIEGO AREA

CITY           SKY/WX    TMP DP  RH WIND       PRES   REMARKS
SAN DIEGO AP   MOSUNNY   51  27  39 CALM      30.19R
NATIONAL CITY    N/A     51  29  42 CALM      30.20R
CHULA VISTA      N/A     51  31  47 CALM      30.09R
IMPERIAL BEACH MOSUNNY   54  28  36 E8        30.18R
BROWN FIELD    SUNNY     50  25  37 SE6       30.16R
MIRAMAR MCAS   SUNNY     55  22  27 NE3       30.15R
MONTGOMERY FLD SUNNY     51  23  33 CALM      30.16R
GILLESPIE FLD  SUNNY     45  28  53 CALM      30.18R

$$

NORTH SAN DIEGO COUNTY

CITY           SKY/WX    TMP DP  RH WIND       PRES   REMARKS
CAMP PENDLETON SUNNY     48  21  34 NE5       30.17S
OCEANSIDE AP   SUNNY     48  24  39 E7        30.17R
OCEANSIDE HBR    N/A     49  25  38 NE2       30.19S
VISTA            N/A     46  30  53 CALM      30.16R
CARLSBAD       SUNNY     49  30  48 CALM      30.15R
DEL MAR          N/A     46  36  67 CALM      30.18R
LA JOLLA SCRIP   N/A     51  30  44 CALM      30.16S
FALLBROOK        N/A     45  26  48 CALM      30.17S
ESCONDIDO        N/A     48  29  48 CALM      30.18R
SAN MARCOS       N/A     49  30  49 CALM      30.20S
POWAY            N/A     43  33  67 CALM      30.18R

$$

EAST SAN DIEGO COUNTY

CITY           SKY/WX    TMP DP  RH WIND       PRES   REMARKS
RAMONA         SUNNY     43  25  49 E3        30.14R
SANTEE LAKES     N/A     45  36  70 CALM      30.17R
LA MESA          N/A     47  27  46 CALM      30.12R
JAMUL            N/A     46  26  45 W2        30.19R
DESCANSO N       N/A     36  23  59 CALM      30.17R
CAMPO            N/A     39  16  39 CALM      30.07R

$$

ORANGE COUNTY AND THE LOS ANGELES BASIN

CITY           SKY/WX    TMP DP  RH WIND       PRES   REMARKS
JOHN WAYNE AP  SUNNY     51  18  27 E5        30.16R
LAKE FOREST FR   N/A     48   8  19 CALM      30.05R
HUNTINGTON BCH   N/A     54  24  31 NE3       30.17R
LOS ALAMITOS   SUNNY     52  14  22 E7        30.16R
FULLERTON      SUNNY     50  16  25 E6        30.16R
LONG BEACH     SUNNY     51  20  29 SE3       30.16S
L.A. AP        SUNNY     51  15  23 E6        30.16R
L.A. DOWNTOWN  SUNNY     50  13  22 VRB3      30.16R

$$

THE INLAND EMPIRE

CITY           SKY/WX    TMP DP  RH WIND       PRES   REMARKS
CORONA         SUNNY     50  13  22 E9        30.17R
CHINO          SUNNY     46  18  32 SE3       30.17R
ONTARIO        SUNNY     43  18  36 W3        30.14S
SAN BERNARDINO SUNNY     46  12  25 CALM      30.15R
RIVERSIDE AP   SUNNY     47  19  33 VRB3      30.16R
MORENO VALLEY    N/A     46  25  43 CALM      28.25R
MARCH ARB      SUNNY     41  18  39 SE3       30.13S
HORSETHIEF CYN   N/A     42  12  29 CALM      30.19R
PERRIS           N/A     42  30  62 CALM      30.09F
HEMET EAST       N/A     43  15  32 CALM      30.23R
FRENCH VALLEY  FAIR      41  19  42 N3        30.15S
TEMECULA         N/A     38  29  68 NW1       30.20S

$$

SAN BERNARDINO AND RIVERSIDE COUNTY MOUNTAINS

CITY           SKY/WX    TMP DP  RH WIND       PRES   REMARKS
BIG BEAR AP      N/A     19   1  45 E3        30.00R
ANGELUS OAKS     N/A     21   8  55 CALM      30.23R

$$

SOUTHERN DESERT INCLUDING THE COACHELLA VALLEY

CITY           SKY/WX    TMP DP  RH WIND       PRES   REMARKS
PALM SPRINGS   SUNNY     53   6  15 VRB6      30.19R
THOUSAND PALMS   N/A     51  14  23 NW3       30.16R
PALM DESERT      N/A     51  22  32 CALM      30.51S
THERMAL        SUNNY     56  11  16 NW10      30.17R
BLYTHE         SUNNY     51   8  17 N12       30.16R
IMPERIAL AP    SUNNY     52  24  33 N8        30.16R
EL CENTRO NAS  SUNNY     53  23  31 N8        30.19R
YUMA AZ        SUNNY     53  13  20 N13       30.14R
MEXICALI       SUNNY     50  23  34 NW6       30.16R

$$

UPPER DESERT

CITY           SKY/WX    TMP DP  RH WIND       PRES   REMARKS
HESPERIA         N/A     36  12  37 CALM      30.30S
APPLE VALLEY     N/A     37  13  37 SW2       30.30S
PALMDALE       SUNNY     36  15  42 CALM      30.16R
LANCASTER      SUNNY     36  15  42 CALM      30.18R
EDWARDS AFB    SUNNY     31  11  42 W5        30.16R WCI  26
DAGGETT        SUNNY     38  12  34 W9        30.18R WCI  31
29 PALMS N     SUNNY     41   7  24 NW10      30.23R
NEEDLES        SUNNY     50   5  16 N7        30.17R

$$

REGIONAL REPORTS

CITY           SKY/WX    TMP DP  RH WIND       PRES   REMARKS
SANTA BARBARA  SUNNY     52  11  19 NE5       30.17R
SANDBERG       SUNNY     29  12  49 VRB5      30.09R WCI  24
LAS VEGAS NV   SUNNY     40   6  24 CALM      30.14R
PHOENIX AZ     MOSUNNY   48  17  29 CALM      30.07R
TIJUANA        SUNNY     48  27  43 E6        30.19R
ENSENADA NW      N/A     55  32  42 CALM      30.09R

$$

OFFSHORE ISLANDS

CITY           SKY/WX    TMP DP  RH WIND       PRES   REMARKS
CATALINA ARPT  SUNNY     47  21  35 VRB6      30.13R
SAN CLEMENTE I MOSUNNY   56  26  31 NW10      30.17R
SAN NICOLAS IS MOSUNNY   52  27  38 NW18      30.16R

$$

MARINE AND OFFSHORE BUOY REPORTS

STATION/POSITION SKY/WX   TEMP    WIND        PRES    VSBY  SWELL
                          AIR SEA DIR/SP/G                  HT/PER/DIR
                          (F)     (DEG/KT/KT) (MB)    (MI)  (FT/S/D)
TANNER BANKS               53 59              1021.5R
S CLEMENTE BASIN           54 61  320/ 12/ 16 1021.3R         7/290/ 9
SAN NICOLAS IS.               58                N/A           8/310/11
SO. S. ROSA ISLA           50 57  310/ 19/ 21 1021.5F        10/310/12
W. S. BARBARA CH           49 57  340/ 14/ 19 1022.7R        10/290/11
M. S. BARBARA CH           51 56  360/  6/  8 1022.6R         5/240/13
S. MONICA BASIN               60   40/  8/ 14 1021.1R         3/260/ 6
S PEDRO CHANNEL               60                N/A           2/270/13
CMP PENDLETON NS              59                N/A           2/250/11
OCEANSIDE OFFSHR              59                N/A           2/270/12
TORREY PINES OTR              60                N/A           2/260/15
SAN DIEGO BAY                 64              1022.3R
POINT LOMA SOUTH              60                N/A           3/270/14

$$





USA.gov is the U.S. government's official web portal to all federal, state and local government web resources and services.